Johns Riffle, Oregon, United States
Lat: 42.72N, Lon: 123.86W
Wx Zone: ORZ024
Local Info
Past Weather Observations for Today

NOTE: This archive is for the closest National Weather Service station to Johns Riffle. Information may differ from the station used for current weather conditions.

Click here for Long-term Archive

Time Weather Temperature Dewpoint Humidity Pressure Winds Precip Visibility
11:56
Clear
54°F / 12°C 39°F / 4°C 58% 30.15 in
(1021 mb)
Variable 6.9 mph
(Variable 11 kph)
- 10SM
10:56
Clear
52°F / 11°C 39°F / 4°C 62% 30.15 in
(1021 mb)
Variable 4.6 mph
(Variable 7 kph)
- 10SM
09:56
Partly Cloudy
46°F / 8°C 39°F / 4°C 76% 30.15 in
(1021 mb)
Variable 3.5 mph
(Variable 6 kph)
- 10SM
09:21
Partly Cloudy
45°F / 7°C 37°F / 3°C 76% 30.15 in
(1021 mb)
Variable 4.6 mph
(Variable 7 kph)
- 10SM
08:56
Mostly Cloudy
45°F / 7°C 37°F / 3°C 76% 30.18 in
(1022 mb)
Variable 6.9 mph
(Variable 11 kph)
- 10SM
08:54
Mostly Cloudy
45°F / 7°C 39°F / 4°C 81% 30.18 in
(1022 mb)
NNW 5.8 mph
(NNW 9 kph)
- 10SM
07:56
Overcast
Fog And Mist
39°F / 4°C 37°F / 3°C 93% 30.15 in
(1021 mb)
N 5.8 mph
(N 9 kph)
- 4SM
07:52
Overcast
Fog And Mist
41°F / 5°C 37°F / 3°C 87% 30.15 in
(1021 mb)
NNW 5.8 mph
(NNW 9 kph)
- 2SM
07:42
Overcast
Fog And Mist
41°F / 5°C 39°F / 4°C 93% 30.15 in
(1021 mb)
N 4.6 mph
(N 7 kph)
- 1SM
07:31
Overcast
Fog And Mist
41°F / 5°C 39°F / 4°C 93% 30.15 in
(1021 mb)
N 4.6 mph
(N 7 kph)
- 1 1/2SM
07:26
Obscured
Fog And Mist
41°F / 5°C 39°F / 4°C 93% 30.15 in
(1021 mb)
N 4.6 mph
(N 7 kph)
- 1SM
06:56
Obscured
Fog
37°F / 3°C 37°F / 3°C 100% 30.15 in
(1021 mb)
N 6.9 mph
(N 11 kph)
- 1/2SM
06:39
Obscured
Fog
37°F / 3°C 37°F / 3°C 100% 30.15 in
(1021 mb)
N 5.8 mph
(N 9 kph)
- 1/4SM
06:33
Obscured
Fog And Mist
37°F / 3°C 37°F / 3°C 100% 30.18 in
(1022 mb)
N 5.8 mph
(N 9 kph)
- 1SM
06:19
Mostly Cloudy
37°F / 3°C 37°F / 3°C 100% 30.15 in
(1021 mb)
N 8.1 mph
(N 13 kph)
- 8SM
06:12
Mostly Cloudy
Fog And Mist
37°F / 3°C 37°F / 3°C 100% 30.15 in
(1021 mb)
N 6.9 mph
(N 11 kph)
- 2 1/2SM
06:10
Obscured
Fog And Mist
37°F / 3°C 37°F / 3°C 100% 30.15 in
(1021 mb)
N 6.9 mph
(N 11 kph)
- 1SM
05:56
Obscured
Fog
37°F / 3°C 37°F / 3°C 100% 30.15 in
(1021 mb)
N 6.9 mph
(N 11 kph)
- 1/4SM
05:43
Obscured
Fog
37°F / 3°C 37°F / 3°C 100% 30.15 in
(1021 mb)
N 5.8 mph
(N 9 kph)
- 1/4SM
05:39
Mostly Cloudy
Fog And Mist
37°F / 3°C 37°F / 3°C 100% 30.15 in
(1021 mb)
N 6.9 mph
(N 11 kph)
- 1 1/4SM
05:36
Mostly Cloudy
Fog And Mist
37°F / 3°C 37°F / 3°C 100% 30.15 in
(1021 mb)
N 6.9 mph
(N 11 kph)
- 3SM
05:34
Obscured
Fog And Mist
37°F / 3°C 37°F / 3°C 100% 30.15 in
(1021 mb)
N 6.9 mph
(N 11 kph)
- 1SM
05:22
Obscured
Fog
37°F / 3°C 37°F / 3°C 100% 30.15 in
(1021 mb)
N 6.9 mph
(N 11 kph)
- 1/4SM
05:18
Obscured
Fog And Mist
37°F / 3°C 37°F / 3°C 100% 30.15 in
(1021 mb)
N 6.9 mph
(N 11 kph)
- 1SM
05:15
Partly Cloudy
Fog And Mist
37°F / 3°C 37°F / 3°C 100% 30.15 in
(1021 mb)
N 8.1 mph
(N 13 kph)
- 1 3/4SM
04:56
Partly Cloudy
37°F / 3°C 37°F / 3°C 100% 30.15 in
(1021 mb)
N 8.1 mph
(N 13 kph)
- 7SM
04:12
Partly Cloudy
37°F / 3°C 37°F / 3°C 100% 30.15 in
(1021 mb)
NNE 10.4 mph
(NNE 17 kph)
- 10SM
03:56
Mostly Cloudy
37°F / 3°C 36°F / 2°C 93% 30.15 in
(1021 mb)
NNE 9.2 mph
(NNE 15 kph)
- 10SM
03:38
Overcast
39°F / 4°C 37°F / 3°C 93% 30.15 in
(1021 mb)
N 8.1 mph
(N 13 kph)
- 10SM
02:56
Overcast
39°F / 4°C 37°F / 3°C 93% 30.15 in
(1021 mb)
N 9.2 mph
(N 15 kph)
- 10SM
01:56
Overcast
39°F / 4°C 37°F / 3°C 93% 30.15 in
(1021 mb)
N 9.2 mph
(N 15 kph)
- 10SM
01:45
Mostly Cloudy
39°F / 4°C 37°F / 3°C 93% 30.15 in
(1021 mb)
N 10.4 mph
(N 17 kph)
- 10SM
01:37
Mostly Cloudy
39°F / 4°C 37°F / 3°C 93% 30.15 in
(1021 mb)
N 8.1 mph
(N 13 kph)
- 10SM
00:56
Partly Cloudy
39°F / 4°C 37°F / 3°C 93% 30.15 in
(1021 mb)
Variable 6.9 mph
(Variable 11 kph)
- 10SM
00:35
Partly Cloudy
41°F / 5°C 37°F / 3°C 87% 30.18 in
(1022 mb)
N 8.1 mph
(N 13 kph)
- 10SM
Time Weather Temperature Dewpoint Humidity Pressure Winds Precip Visibility


Weather for websites

WeatherForYou.com, LLC is not responsible for any damages or problems caused by this service. Current weather conditions are obtained from the closest station including government and personal stations which may have varying degrees of accuracy. Weather forecasts are derived from the NOAA NDFD. Like all things, this site belongs to Jesus Christ... He just trusts us to maintain it. If you have any questions or comments email webmaster@weatherforyou.com

Copyright © 2016, WeatherForYou.com LLC. All rights reserved.